Wind_Speed
30 29 34 35 35 33 29 26 23 16 16 26 29 31 33 32 29 26 26 23 19 18 18 20 20 20 21 20 19 17 15 13 13 11 11 12 12 11 11 9 12 11 9 9
26 39 33 29 29 30 32 31 32 20 15 29 37 38 36 33 29 21 26 28 24 14 23 21 22 22 23 21 19 19 17 16 14 14 14 14 13 14 14 16 14 12 11 10
36 24 34 32 32 29 32 37 35 22 13 13 17 27 36 34 34 28 32 30 28 22 15 25 26 25 23 23 20 18 18 17 15 14 16 16 16 15 15 15 12 10 8 3
35 36 17 36 36 35 36 41 34 26 23 26 21 13 29 36 39 38 39 38 36 33 21 17 18 29 28 26 23 22 22 20 19 18 18 16 14 13 11 14 10 6 4 4
30 29 38 33 35 36 46 34 29 29 28 26 28 24 33 23 32 41 46 45 31 34 26 19 15 12 15 22 24 26 27 26 24 22 21 18 16 13 14 14 8 7 9 8
34 23 20 32 29 29 36 29 26 29 32 23 37 34 33 37 39 37 47 47 30 36 32 27 17 18 14 14 17 17 17 25 27 26 23 20 16 15 16 14 9 11 13 12
37 38 31 28 31 31 32 33 17 13 13 11 30 35 33 29 28 32 44 37 35 26 33 31 22 23 22 20 19 18 19 18 26 27 25 21 17 17 16 14 11 14 15 14
35 25 41 34 43 37 40 41 24 8 4 5 27 23 43 40 29 33 41 40 34 28 29 33 22 20 23 22 19 16 17 19 18 25 25 22 20 19 18 16 13 15 17 17
20 32 24 41 38 36 40 43 40 38 30 13 14 22 36 32 41 36 39 45 41 35 31 30 26 21 21 22 22 19 16 16 17 17 21 21 22 22 21 18 17 20 21 17
37 18 20 29 35 41 36 34 33 31 12 15 11 24 26 32 31 31 35 43 47 38 36 32 35 25 28 27 25 23 20 18 15 15 18 19 21 23 23 21 20 23 22 19
49 48 40 29 37 42 47 43 38 34 38 13 8 31 41 36 27 21 41 45 41 47 41 35 37 34 29 31 25 26 25 22 21 21 20 20 22 24 23 22 21 25 22 19
45 39 45 52 43 29 47 44 43 36 23 25 39 40 9 29 26 31 30 42 42 46 41 35 29 26 32 28 29 28 27 27 24 22 22 22 24 25 24 22 24 24 22 19
11 37 34 36 41 51 44 34 49 49 37 44 16 13 39 41 32 10 10 39 44 42 34 33 36 35 36 33 29 30 29 24 24 26 26 26 27 28 26 25 25 23 23 20
25 33 34 36 38 40 39 48 36 50 44 37 57 35 28 29 35 29 27 24 42 43 34 29 34 37 40 33 29 27 30 21 18 22 28 28 28 28 29 27 27 25 24 20
21 27 28 39 44 47 46 42 47 44 55 48 41 40 46 39 34 17 21 23 32 34 39 33 30 39 45 41 34 28 31 26 18 21 19 29 29 28 31 33 30 28 28 25
17 14 20 30 34 47 49 48 44 34 48 55 48 42 37 40 41 41 25 23 31 38 33 36 30 35 34 39 42 35 28 25 22 24 24 18 27 32 32 34 35 33 32 30
18 8 15 12 32 36 39 61 47 44 41 43 44 49 37 34 27 33 35 27 32 36 31 40 23 33 32 31 35 42 35 30 26 24 26 26 22 27 34 33 36 36 34 34
22 16 14 14 11 19 50 45 54 45 37 30 17 39 41 35 29 32 29 28 24 33 35 25 25 27 22 22 30 36 37 32 30 27 28 29 28 26 30 36 35 36 38 39
26 16 11 8 13 15 27 32 37 45 49 40 38 31 18 42 34 30 29 39 34 29 33 33 26 23 22 22 24 30 34 30 29 31 26 29 29 31 32 32 37 37 38 39
23 21 24 18 5 6 24 19 30 19 13 21 31 34 29 16 38 35 36 29 32 25 37 32 40 37 41 43 32 32 26 25 25 22 19 19 23 33 35 33 33 39 39 37
10 19 20 27 14 10 5 19 22 28 16 18 23 25 28 26 21 35 32 31 32 37 35 28 34 28 38 30 30 29 28 29 28 26 24 23 24 22 32 35 36 36 40 40
16 10 18 17 14 7 6 10 30 20 24 18 16 13 18 23 24 23 29 27 23 25 29 30 34 38 37 39 48 42 37 40 37 31 34 33 33 27 28 35 40 39 35 36
20 22 22 18 10 14 9 13 19 24 25 22 18 21 23 23 25 26 26 26 24 23 23 21 25 31 33 41 42 46 47 47 47 41 39 39 40 40 37 38 39 39 38 39
26 33 35 30 25 11 10 17 24 25 23 22 18 17 20 22 25 27 27 29 29 28 25 25 26 25 27 32 34 34 38 43 44 46 47 47 46 42 44 38 35 38 43 41
20 31 36 40 30 16 7 12 22 21 12 12 17 27 21 15 15 18 20 21 20 23 27 31 29 28 30 31 34 36 38 38 41 43 47 50 48 43 44 44 39 36 38 35
29 32 37 40 22 12 7 9 15 23 16 15 13 15 18 17 18 17 17 18 18 18 22 25 28 30 33 37 34 34 37 37 38 36 37 39 39 42 42 45 35 31 32 27
Wind_Direction
189 201 207 209 207 216 227 230 240 253 263 208 205 204 202 201 208 222 229 235 233 229 216 213 209 214 222 220 218 214 214 215 223 235 245 246 250 252 250 247 244 257 273 275
202 219 211 212 211 216 223 233 240 259 278 209 209 210 200 207 225 242 241 238 237 239 213 216 223 224 229 231 224 221 215 218 222 227 236 242 246 242 237 231 237 245 256 253
214 219 214 214 213 216 225 229 239 246 266 211 192 194 202 210 216 235 240 250 243 240 234 217 220 227 226 227 226 223 222 221 225 228 232 234 239 242 248 248 243 247 222 178
231 215 211 218 218 209 226 217 239 248 255 230 205 236 241 235 229 226 233 239 238 237 245 247 240 231 230 226 227 229 229 227 229 230 234 241 248 245 247 243 238 225 152 133
218 226 215 223 222 212 228 222 239 245 252 233 221 230 256 250 241 231 222 234 234 230 236 248 255 265 250 239 236 236 238 235 230 231 232 236 242 238 226 230 205 193 166 156
240 218 232 227 221 224 227 234 241 247 249 237 236 228 232 237 238 237 221 226 229 231 231 245 260 268 267 250 233 233 243 236 232 232 229 234 236 234 226 223 198 176 171 166
233 237 231 230 225 226 227 225 230 241 226 234 241 227 221 237 228 233 217 221 224 225 228 233 241 249 254 252 244 235 241 244 232 232 232 230 231 231 226 220 195 179 177 171
223 235 227 220 229 226 226 227 215 211 212 214 236 221 228 242 248 239 223 230 226 221 224 225 225 231 248 255 256 239 226 233 236 232 233 227 224 223 224 220 199 190 184 185
218 231 231 227 221 225 224 228 233 235 247 278 253 235 247 249 242 238 236 223 226 223 218 220 222 222 234 234 243 240 214 209 221 236 234 228 220 218 221 220 206 189 192 187
226 253 240 229 223 227 232 227 221 221 217 241 246 245 245 237 244 241 228 224 223 222 221 228 228 233 236 236 240 243 230 207 210 227 235 232 222 218 219 222 210 194 197 196
233 235 248 243 226 222 224 228 227 230 226 226 242 249 242 243 249 263 245 229 230 220 218 224 226 235 233 223 221 241 240 216 205 214 225 227 221 217 218 220 213 197 199 205
229 235 236 242 235 227 231 232 229 223 222 230 232 241 235 240 250 261 260 238 234 219 219 232 237 217 222 227 223 226 239 231 212 216 222 226 220 217 217 215 208 200 199 204
234 233 232 240 240 231 238 230 231 233 232 233 225 240 245 239 241 254 261 231 225 209 224 230 238 230 231 225 224 231 234 220 218 219 221 224 220 219 213 210 206 211 217 221
250 247 232 233 227 224 231 232 236 230 225 231 238 240 241 239 247 258 259 242 230 219 233 237 223 229 224 225 225 226 231 221 215 224 224 228 225 222 217 213 214 216 222 228
272 264 262 250 235 228 225 229 228 234 229 224 237 238 244 247 244 232 232 250 233 220 218 240 233 239 232 235 228 225 230 224 210 223 227 229 229 226 221 220 219 219 225 233
259 285 266 264 234 228 226 227 226 233 234 234 237 244 248 248 253 243 244 256 241 215 238 232 249 212 227 233 231 219 221 220 226 221 231 233 228 229 227 225 224 228 233 236
295 313 312 273 231 225 230 229 226 234 234 235 234 236 242 241 246 234 242 250 225 214 244 226 241 228 230 232 230 225 227 234 237 240 240 235 237 232 231 231 232 230 233 241
272 294 301 286 229 200 229 236 231 229 232 224 248 246 243 242 242 241 232 234 235 230 223 237 232 232 225 224 224 221 230 237 236 234 240 242 237 240 235 231 234 236 236 240
244 267 263 263 287 204 203 231 221 225 237 240 242 246 257 239 236 236 239 245 241 233 221 239 217 206 215 211 220 221 223 231 233 230 235 235 234 236 237 236 230 234 237 241
234 238 236 257 305 258 206 184 204 203 226 218 232 240 243 239 230 232 234 234 228 217 219 234 220 232 232 241 221 217 218 228 228 227 235 242 242 233 235 238 238 233 237 241
159 201 214 252 246 261 166 216 192 195 229 232 232 235 238 242 231 227 230 232 233 232 233 230 234 220 226 214 226 238 233 241 247 246 245 237 237 248 241 238 240 239 237 242
208 156 194 238 266 239 175 169 215 215 217 251 252 240 229 231 229 228 229 237 234 230 226 232 232 235 239 237 238 229 245 255 249 252 253 251 251 249 251 245 241 241 243 241
206 198 184 215 226 317 23 161 178 204 225 231 231 215 199 207 209 216 223 220 220 213 212 216 224 230 223 226 234 240 241 248 253 252 250 251 247 255 256 257 248 248 247 241
204 207 202 211 240 299 173 168 179 175 186 180 188 203 196 207 213 215 218 225 231 238 245 243 240 238 236 237 242 249 245 246 248 249 251 253 253 254 254 249 255 248 248 239
187 187 199 212 222 271 46 180 184 172 156 190 208 228 234 219 216 216 220 225 229 236 244 253 256 250 247 241 246 246 247 247 247 248 249 245 246 244 242 244 244 243 236 239
181 184 194 204 215 268 262 160 186 190 185 191 178 187 195 216 233 226 228 237 245 246 244 248 253 258 258 250 248 251 249 246 247 248 244 239 238 241 243 243 236 231 217 190
Height
3123 3125 3122 3131 3137 3142 3145 3147 3148 3153 3156 3154 3156 3158 3157 3159 3164 3165 3166 3167 3170 3173 3176 3177 3179 3183 3185 3188 3191 3194 3196 3198 3199 3199 3201 3203 3205 3205 3207 3207 3209 3209 3208 3209
3119 3113 3122 3129 3134 3138 3140 3142 3142 3150 3150 3150 3150 3153 3157 3157 3157 3160 3161 3164 3167 3171 3172 3174 3176 3179 3181 3184 3188 3191 3194 3196 3198 3199 3200 3201 3203 3203 3204 3205 3206 3206 3207 3209
3109 3113 3120 3124 3128 3132 3134 3136 3138 3147 3149 3149 3152 3155 3157 3157 3157 3158 3161 3163 3164 3166 3167 3170 3172 3174 3179 3180 3183 3187 3191 3193 3195 3197 3198 3199 3200 3200 3201 3202 3204 3205 3205 3207
3107 3112 3114 3118 3119 3126 3126 3131 3138 3143 3146 3146 3147 3148 3152 3155 3156 3155 3155 3157 3159 3160 3163 3166 3168 3170 3172 3176 3180 3183 3185 3189 3191 3193 3194 3196 3197 3198 3199 3199 3200 3202 3204 3205
3096 3101 3107 3109 3111 3121 3115 3130 3135 3140 3141 3140 3140 3142 3136 3142 3144 3147 3149 3152 3152 3154 3158 3161 3163 3166 3168 3171 3175 3179 3181 3184 3186 3189 3191 3192 3193 3195 3196 3197 3198 3200 3202 3204
3093 3099 3103 3106 3112 3116 3122 3128 3131 3135 3136 3132 3134 3134 3129 3131 3135 3139 3142 3145 3147 3152 3155 3159 3161 3163 3164 3167 3170 3173 3176 3178 3181 3184 3186 3188 3190 3191 3192 3195 3197 3199 3201 3203
3088 3090 3097 3103 3107 3112 3116 3121 3124 3126 3124 3119 3127 3126 3120 3122 3126 3128 3133 3136 3141 3145 3149 3154 3157 3158 3160 3162 3166 3169 3171 3174 3176 3178 3181 3183 3186 3187 3189 3192 3195 3197 3200 3202
3080 3083 3085 3090 3096 3102 3106 3110 3110 3119 3115 3114 3118 3113 3108 3119 3121 3122 3124 3129 3134 3139 3141 3146 3150 3154 3155 3158 3161 3164 3166 3169 3171 3173 3176 3179 3181 3183 3186 3189 3192 3194 3197 3199
3074 3074 3079 3084 3090 3097 3099 3097 3109 3109 3108 3108 3105 3105 3107 3112 3114 3116 3118 3124 3127 3131 3134 3138 3142 3146 3152 3152 3155 3160 3162 3164 3167 3170 3172 3174 3178 3180 3183 3186 3190 3191 3194 3196
3068 3068 3070 3077 3083 3086 3088 3099 3100 3097 3103 3104 3096 3095 3094 3101 3106 3108 3112 3116 3117 3122 3128 3133 3136 3139 3144 3147 3150 3155 3159 3160 3164 3167 3168 3171 3174 3177 3180 3182 3186 3188 3190 3193
3063 3065 3063 3069 3065 3073 3080 3081 3085 3089 3089 3088 3094 3077 3090 3095 3100 3102 3104 3105 3108 3111 3120 3123 3129 3134 3138 3143 3144 3149 3154 3157 3158 3161 3164 3166 3169 3173 3176 3178 3182 3184 3186 3188
3052 3056 3051 3048 3057 3063 3067 3070 3076 3077 3078 3078 3077 3063 3084 3092 3096 3097 3098 3101 3103 3109 3116 3121 3123 3130 3132 3137 3139 3140 3148 3152 3154 3156 3160 3162 3165 3168 3171 3174 3177 3180 3182 3184
3044 3035 3041 3039 3046 3050 3051 3057 3063 3066 3072 3064 3066 3066 3078 3087 3089 3092 3093 3098 3101 3110 3115 3117 3121 3126 3129 3131 3134 3135 3141 3146 3150 3151 3154 3157 3159 3162 3167 3170 3173 3175 3178 3180
3033 3028 3026 3020 3029 3040 3042 3046 3052 3057 3055 3058 3046 3066 3073 3079 3083 3087 3091 3094 3098 3106 3111 3112 3115 3120 3124 3125 3128 3130 3135 3140 3144 3146 3149 3151 3154 3157 3162 3166 3168 3171 3173 3174
3023 3016 3021 3017 3023 3028 3031 3037 3041 3040 3044 3044 3050 3058 3067 3072 3078 3082 3085 3089 3091 3094 3100 3106 3109 3112 3113 3116 3121 3125 3130 3134 3137 3140 3142 3144 3148 3153 3156 3158 3161 3164 3167 3169
3018 3013 3012 3007 3013 3017 3020 3026 3029 3031 3036 3039 3046 3050 3061 3066 3069 3075 3079 3081 3084 3089 3092 3096 3097 3099 3103 3108 3111 3117 3123 3127 3130 3134 3136 3139 3142 3145 3148 3152 3155 3157 3160 3162
3012 3012 3008 2999 3006 3012 3019 2997 3018 3025 3029 3034 3037 3045 3055 3058 3060 3064 3071 3073 3077 3080 3086 3089 3090 3091 3095 3099 3102 3110 3116 3120 3123 3125 3129 3132 3135 3137 3140 3144 3147 3150 3152 3155
3006 3010 3010 3000 2998 3001 2982 3001 3010 3018 3024 3030 3034 3039 3045 3050 3056 3058 3063 3067 3070 3074 3080 3083 3084 3088 3091 3096 3100 3105 3110 3113 3115 3117 3120 3124 3127 3130 3132 3135 3138 3142 3145 3146
3000 3005 3006 3002 2994 2990 2991 2994 3002 3008 3015 3023 3027 3032 3036 3043 3048 3050 3054 3057 3064 3068 3073 3075 3080 3082 3086 3090 3096 3100 3103 3106 3108 3109 3112 3115 3118 3121 3123 3126 3130 3133 3135 3137
2991 2996 3002 3000 3001 2990 2990 2994 2996 3004 3009 3014 3018 3025 3031 3034 3035 3042 3047 3051 3056 3061 3066 3070 3075 3078 3080 3085 3088 3093 3096 3099 3101 3102 3105 3108 3109 3112 3115 3118 3120 3123 3126 3129
2980 2989 2993 2995 2998 2989 2988 2992 2993 2999 3007 3009 3012 3018 3023 3027 3031 3036 3041 3046 3049 3053 3059 3063 3066 3071 3074 3077 3083 3085 3089 3091 3095 3097 3098 3099 3101 3103 3106 3109 3111 3113 3116 3120
2975 2982 2993 2995 2990 2982 2975 2981 2990 2995 2998 3003 3008 3013 3017 3021 3025 3030 3034 3038 3042 3045 3050 3055 3061 3065 3069 3071 3075 3076 3079 3085 3086 3087 3089 3091 3093 3093 3095 3097 3099 3103 3107 3110
2969 2974 2982 2986 2986 2981 2977 2980 2984 2988 2993 2997 3002 3008 3012 3015 3019 3025 3029 3033 3037 3040 3045 3049 3053 3056 3059 3062 3064 3066 3069 3073 3075 3075 3077 3080 3081 3083 3085 3086 3088 3092 3096 3097
2958 2966 2973 2979 2980 2977 2974 2979 2983 2984 2990 2995 3000 3004 3009 3013 3016 3021 3025 3029 3032 3035 3038 3041 3044 3048 3051 3053 3054 3056 3058 3058 3058 3061 3064 3067 3069 3071 3074 3075 3075 3078 3081 3084
2952 2959 2965 2974 2976 2974 2973 2978 2982 2983 2988 2993 2996 3000 3007 3011 3014 3017 3021 3024 3026 3028 3031 3033 3035 3037 3040 3042 3044 3046 3047 3047 3046 3048 3050 3051 3055 3057 3059 3060 3060 3062 3071 3074
2948 2955 2961 2968 2974 2978 2977 2977 2978 2980 2983 2986 2994 3000 3004 3007 3010 3013 3014 3017 3020 3023 3026 3028 3029 3029 3029 3031 3033 3035 3037 3037 3039 3039 3039 3041 3043 3042 3045 3044 3049 3058 3061 3063